Date String (YYYY-MM-DD hh:mm:ss) UTC,Instrument flags,Ambient pressure (hPa),Sample flow (lpm),Bypass flow (lpm),Sample temperature (°C),Ambient temperature (°C),ASC tube jacket temperature (°C),LED temperature (°C),Box temperature (°C),Sample RH (%),Span deviation,Mass concentration (μg/m³),Mass concentration (μg/m³),Mass concentration (μg/m³)
DateTimeUTC,F1_M11,P_M11,Q1_M11,Q2_M11,T1_M11,T2_M11,T3_M11,T4_M11,T5_M11,U1_M11,ZSPAN_M11,X2_M11,X0_M11,X1_M11
2022-10-08 13:00:00,,0836.5,5.00,0.00,25.5,23.9,00.0,34.3,27.3,20.7,-001.3,0008.08,0012.62,0007.64
2022-10-08 13:01:00,,0836.5,5.00,0.00,25.5,23.9,00.0,34.3,27.3,20.8,-001.4,0008.11,0012.62,0007.69
2022-10-08 13:02:00,,0836.5,4.99,0.00,25.5,23.9,00.0,34.3,27.3,20.9,-001.4,0008.22,0012.84,0007.79
2022-10-08 13:03:00,,0836.5,5.01,0.00,25.5,23.9,00.0,34.3,27.4,20.9,-001.0,0008.31,0013.72,0007.88
2022-10-08 13:04:00,,0836.5,4.99,0.00,25.5,23.9,00.0,34.3,27.4,21.0,-001.0,0008.41,0014.25,0007.98
2022-10-08 13:05:00,,0836.5,5.00,0.00,25.5,23.9,00.0,34.3,27.4,21.1,-001.1,0008.49,0014.43,0008.06
2022-10-08 13:06:00,,0836.5,5.00,0.00,25.5,23.9,00.0,34.3,27.4,21.0,-001.2,0008.56,0013.90,0008.12
2022-10-08 13:07:00,,0836.5,4.99,0.00,25.5,23.9,00.0,34.3,27.4,21.0,-001.6,0008.66,0013.62,0008.18
2022-10-08 13:08:00,,0836.5,5.01,0.00,25.5,23.9,00.0,34.3,27.4,21.0,-001.8,0008.71,0013.57,0008.22
2022-10-08 13:09:00,,0836.5,4.99,0.00,25.5,23.9,00.0,34.3,27.3,21.1,-001.8,0008.75,0013.57,0008.28
2022-10-08 13:10:00,,0836.5,5.01,0.00,25.4,23.9,00.0,34.3,27.3,21.1,-001.6,0008.79,0013.68,0008.32
2022-10-08 13:11:00,,0836.5,4.99,0.00,25.4,23.8,00.0,34.3,27.3,21.1,-001.5,0008.87,0013.94,0008.37
2022-10-08 13:12:00,,0836.5,5.00,0.00,25.4,23.8,00.0,34.3,27.3,21.2,-001.7,0008.91,0014.04,0008.39
2022-10-08 13:13:00,,0836.5,5.00,0.00,25.4,23.8,00.0,34.2,27.3,21.1,-001.6,0008.89,0013.94,0008.38
2022-10-08 13:14:00,,0836.5,5.00,0.00,25.4,23.8,00.0,34.2,27.3,21.2,-001.6,0008.89,0013.11,0008.40
2022-10-08 13:15:00,,0836.5,5.00,0.00,25.4,23.8,00.0,34.2,27.3,21.2,-001.7,0008.88,0012.72,0008.40
2022-10-08 13:16:00,,0836.5,5.01,0.00,25.4,23.8,00.0,34.2,27.3,21.2,-001.6,0008.84,0012.60,0008.37
2022-10-08 13:17:00,,0836.5,4.99,0.00,25.4,23.8,00.0,34.2,27.3,21.1,-001.4,0008.73,0012.38,0008.28
2022-10-08 13:18:00,,0836.5,5.01,0.00,25.4,23.8,00.0,34.2,27.3,20.9,-001.2,0008.58,0012.16,0008.18
2022-10-08 13:19:00,,0836.5,5.00,0.00,25.4,23.8,00.0,34.2,27.3,20.9,-000.9,0008.48,0012.45,0008.09
2022-10-08 13:20:00,,0836.5,5.00,0.00,25.4,23.8,00.0,34.2,27.3,20.9,-001.1,0008.40,0012.68,0007.99
2022-10-08 13:21:00,,0836.5,5.01,0.00,25.4,23.8,00.0,34.2,27.3,21.1,-001.2,0008.39,0012.61,0007.95
2022-10-08 13:22:00,,0836.5,4.99,0.00,25.4,23.8,00.0,34.2,27.2,21.1,-001.6,0008.34,0012.44,0007.91
2022-10-08 13:23:00,,0836.5,5.00,0.00,25.4,23.8,00.0,34.2,27.3,21.0,-001.6,0008.23,0012.30,0007.80
2022-10-08 13:24:00,,0836.5,5.00,0.00,25.4,23.8,00.0,34.2,27.3,21.0,-001.8,0008.14,0012.42,0007.71
2022-10-08 13:25:00,,0836.5,5.00,0.00,25.4,23.8,00.0,34.2,27.2,21.0,-002.0,0008.09,0012.38,0007.65
2022-10-08 13:26:00,,0836.5,5.01,0.00,25.4,23.8,00.0,34.2,27.2,21.0,-001.8,0008.02,0012.31,0007.58
2022-10-08 13:27:00,,0836.5,5.00,0.00,25.3,23.8,00.0,34.2,27.2,21.1,-001.7,0007.95,0012.22,0007.50
2022-10-08 13:28:00,,0836.5,5.01,0.00,25.4,23.8,00.0,34.1,27.2,21.0,-001.6,0007.97,0012.31,0007.49
2022-10-08 13:29:00,,0836.5,5.00,0.00,25.3,23.8,00.0,34.1,27.2,21.0,-001.6,0007.99,0012.32,0007.53
2022-10-08 13:30:00,,0836.5,4.99,0.00,25.3,23.8,00.0,34.1,27.2,21.1,-001.6,0008.04,0012.16,0007.55
2022-10-08 13:31:00,,0836.5,5.00,0.00,25.3,23.8,00.0,34.1,27.2,21.1,-001.1,0008.11,0011.73,0007.61
2022-10-08 13:32:00,,0836.5,5.00,0.00,25.3,23.8,00.0,34.1,27.2,21.2,-001.2,0008.08,0011.63,0007.63
2022-10-08 13:33:00,,0836.5,4.99,0.00,25.3,23.8,00.0,34.1,27.2,21.3,-001.3,0008.06,0011.58,0007.64
2022-10-08 13:34:00,,0836.5,5.01,0.00,25.3,23.8,00.0,34.1,27.2,21.3,-001.5,0008.12,0011.69,0007.69
2022-10-08 13:35:00,,0836.5,5.00,0.00,25.3,23.8,00.0,34.1,27.2,21.3,-001.4,0008.20,0011.90,0007.76
2022-10-08 13:36:00,,0836.5,5.00,0.00,25.3,23.8,00.0,34.1,27.2,21.3,-001.5,0008.28,0011.92,0007.82
2022-10-08 13:37:00,,0836.6,5.01,0.00,25.3,23.8,00.0,34.1,27.2,21.4,-002.0,0008.32,0012.38,0007.85
2022-10-08 13:38:00,,0836.5,4.99,0.00,25.3,23.8,00.0,34.1,27.2,21.5,-002.3,0008.40,0012.64,0007.92
2022-10-08 13:39:00,,0836.6,5.00,0.00,25.3,23.8,00.0,34.1,27.2,21.5,-002.4,0008.48,0012.72,0008.00
2022-10-08 13:40:00,,0836.6,5.00,0.00,25.3,23.8,00.0,34.1,27.2,21.5,-002.3,0008.59,0012.90,0008.10
2022-10-08 13:41:00,,0836.6,4.99,0.00,25.3,23.8,00.0,34.1,27.2,21.5,-002.4,0008.65,0013.29,0008.18
2022-10-08 13:42:00,,0836.6,5.00,0.00,25.3,23.8,00.0,34.1,27.2,21.6,-002.3,0008.69,0013.37,0008.24
2022-10-08 13:43:00,,0836.6,5.00,0.00,25.3,23.8,00.0,34.1,27.2,21.5,-002.1,0008.72,0013.74,0008.26
2022-10-08 13:44:00,,0836.6,5.01,0.00,25.3,23.8,00.0,34.1,27.2,21.5,-001.8,0008.69,0013.74,0008.24
2022-10-08 13:45:00,,0836.6,5.00,0.00,25.3,23.8,00.0,34.1,27.2,21.5,-001.4,0008.69,0013.76,0008.24
2022-10-08 13:46:00,,0836.6,4.99,0.00,25.3,23.8,00.0,34.1,27.2,21.5,-001.4,0008.73,0013.60,0008.26
2022-10-08 13:47:00,,0836.6,5.00,0.00,25.3,23.8,00.0,34.1,27.2,21.6,-001.1,0008.77,0013.74,0008.30
2022-10-08 13:48:00,,0836.6,5.01,0.00,25.3,23.8,00.0,34.1,27.2,21.6,-000.9,0008.83,0013.53,0008.35
2022-10-08 13:49:00,,0836.7,5.00,0.00,25.3,23.8,00.0,34.1,27.2,21.6,-000.7,0008.85,0013.44,0008.37
2022-10-08 13:50:00,,0836.6,4.99,0.00,25.3,23.8,00.0,34.1,27.2,21.7,-000.9,0008.90,0013.89,0008.39
2022-10-08 13:51:00,,0836.6,5.00,0.00,25.3,23.8,00.0,34.1,27.2,21.8,-001.0,0008.94,0013.99,0008.40
2022-10-08 13:52:00,,0836.7,5.01,0.00,25.3,23.8,00.0,34.1,27.2,21.8,-000.8,0008.97,0013.70,0008.41
2022-10-08 13:53:00,,0836.7,5.00,0.00,25.3,23.8,00.0,34.1,27.2,21.9,-000.9,0009.03,0013.81,0008.45
2022-10-08 13:54:00,,0836.6,4.99,0.00,25.3,23.8,00.0,34.1,27.2,21.9,-001.0,0009.12,0014.22,0008.54
2022-10-08 13:55:00,,0836.6,5.01,0.00,25.3,23.9,00.0,34.1,27.2,21.9,-001.1,0009.21,0014.26,0008.63
2022-10-08 13:56:00,,0836.6,5.00,0.00,25.3,23.9,00.0,34.1,27.2,22.0,-001.3,0009.35,0014.57,0008.76
2022-10-08 13:57:00,,0836.7,4.99,0.00,25.3,23.9,00.0,34.1,27.2,22.2,-001.2,0009.44,0014.65,0008.87
2022-10-08 13:58:00,,0836.7,5.00,0.00,25.3,23.9,00.0,34.1,27.2,22.5,-001.4,0009.39,0014.58,0008.84
2022-10-08 13:59:00,,0836.7,5.01,0.00,25.3,23.9,00.0,34.1,27.2,22.5,-001.5,0009.35,0014.56,0008.81
